Regional Weather Roundup
Issued by NWS

Home | Current Version | Previous Version | Text Only | Print | Product List | Glossary Off
Versions: 1 2 3 4 5 6 7 8 9 10 11 12 13 14 15 16 17 18 19 20 21 22 23 24 25 26 27 28 29 30 31 32 33 34 35 36 37 38 39 40 41 42 43 44 45 46 47 48 49 50

000
ASUS43 KIND 281659
RWRIN

WEATHER ROUNDUP FOR INDIANA
NATIONAL WEATHER SERVICE INDIANAPOLIS IN
100 PM EDT WED JUN 28 2017

NOTE: "FAIR" INDICATES FEW OR NO CLOUDS BELOW 12,000 FEET WITH NO
SIGNIFICANT WEATHER AND/OR OBSTRUCTIONS TO VISIBILITY.

* - STATION DOES NOT REPORT WEATHER SUCH AS PRECIPITATION OR FOG.

+ - STATION NOT QUALITY CONTROLLED BY THE NATIONAL WEATHER SERVICE.
    USE DATA WITH CAUTION...ESPECIALLY DEWPOINT AND RELATIVE
    HUMIDITY OBSERVATIONS.

INZ001>003-010>013-019-020-281800-
NORTHWEST INDIANA

CITY           SKY/WX    TMP DP  RH WIND       PRES   REMARKS
GARY /AIRPORT/ CLOUDY    72  52  49 S10       30.02S
KNOX *+        CLOUDY    72  43  35 S15       30.05F
MICHIGAN CITY+ CLOUDY    72  54  53 S7        30.04R
MONTICELLO +   CLOUDY    74  55  51 S8        30.06S
RENSSELAER +   CLOUDY    73  48  40 S13G22    30.04F

$$

LMZ046-743>745-281800-
SOUTHERN LAKE MICHIGAN

STATION/POSITION TIME  TEMP    WIND        PRES    WAVE
                       AIR SEA DIR/SP/G            HT
                 (UTC) (F)     (DEG/KT/KT) (MB)    (FT)
BURNS HARBOR     1640   72     190/ 13/ 17 1016.9S
MICHIGAN CITY    1630   71     170/ 16/ 18   N/A
5NW MICH CITY    1650   70 66  200/ 12/ 16   N/A     2

$$

INZ004-005-014>016-021>024-281800-
NORTH CENTRAL INDIANA

CITY           SKY/WX    TMP DP  RH WIND       PRES   REMARKS
ELKHART        CLOUDY    75  52  43 SW17G25   30.05F
GOSHEN         CLOUDY    75  50  41 S20       30.07F
SOUTH BEND     CLOUDY    74  55  51 S16G25    30.04F

$$

INZ006>009-017-018-025>027-281800-
NORTHEAST INDIANA

CITY           SKY/WX    TMP DP  RH WIND       PRES   REMARKS
ANGOLA *+      SUNNY     75  68  78 SW14      30.08F
FORT WAYNE     PTSUNNY   75  52  44 S14G24    30.11F
KENDALLVILLE + CLOUDY    74  52  45 S15G21    30.10S

$$

INZ028-029-035-036-043>045-051>053-281800-
WEST CENTRAL INDIANA

CITY           SKY/WX    TMP DP  RH WIND       PRES   REMARKS
CRAWFORDSVL +  MOSUNNY   74  57  54 S10G17    30.09S
LAFAYETTE      PTSUNNY   75  57  53 S9        30.05F
TERRE HAUTE    PTSUNNY   78  55  44 S14       30.08F

$$

INZ030>032-037>040-046>048-054>057-064-065-281800-
CENTRAL INDIANA

CITY           SKY/WX    TMP DP  RH WIND       PRES   REMARKS
CP ATTERBURY + MOSUNNY   77  54  44 S13       30.13S
COLUMBUS       SUNNY     77  48  36 S14G21    30.14S
INDIANAPOLIS   CLOUDY    76  55  48 S15       30.10F
-EAGLE CREEK   MOSUNNY   76  53  44 S12       30.10F
KOKOMO +       CLOUDY    76  53  44 S15       30.10F
MT COMFORT *+  MOSUNNY   75  54  46 S10G18    30.13S
SHELBYVILLE    CLOUDY    78  53  41 SW15G23   30.12F

$$

INZ033-034-041-042-049-050-058-059-281800-
EAST CENTRAL INDIANA

CITY           SKY/WX    TMP DP  RH WIND       PRES   REMARKS
MUNCIE         MOSUNNY   76  50  40 S12G22    30.12F
RICHMOND +     CLOUDY    73  52  46 S10G18    30.16F

$$

INZ060-061-067>069-081>083-085>088-281800-
SOUTHWEST INDIANA

CITY           SKY/WX    TMP DP  RH WIND       PRES   REMARKS
EVANSVILLE     CLOUDY    82  56  40 S13       30.10F
HUNTINGBURG *+ SUNNY     80  58  46 S13       30.12S

$$

INZ062-063-066-070>080-084-089>092-281800-
SOUTH CENTRAL AND SOUTHEAST INDIANA

CITY           SKY/WX    TMP DP  RH WIND       PRES   REMARKS
BLOOMINGTON    SUNNY     80  53  39 S9        30.11F
SEYMOUR +      MOSUNNY   79  55  44 S13       30.13F

$$





USA.gov is the U.S. government's official web portal to all federal, state and local government web resources and services.